Temperature
14 15 15 15 19 20 21 21 20 20 20 18 18 19 20 21 21 19 15 15 15 15 15 15 15 15 15 15 15 15 16 16 16 15 15 15 15 15 15 15 15 15 15 15 15 15 15 15 15
14 14 15 17 19 20 21 20 19 19 18 17 17 18 18 18 16 15 15 15 15 15 15 15 15 15 15 15 15 15 15 15 15 15 15 15 15 15 15 15 15 15 15 15 15 15 15 15 15
14 14 15 18 19 20 21 19 19 18 16 16 17 17 17 16 14 14 14 15 14 14 14 15 15 15 15 15 15 15 15 15 15 15 15 15 15 15 15 15 15 15 15 15 15 15 15 15 15
13 14 16 18 18 19 19 19 17 17 16 16 16 17 15 13 13 14 14 14 14 14 14 14 15 15 15 15 15 15 15 15 15 15 15 15 15 15 15 15 15 15 15 15 15 15 15 15 15
13 15 17 17 18 18 18 17 16 17 17 16 16 17 15 13 13 13 14 14 14 14 14 14 14 14 14 14 14 15 15 15 15 15 15 15 15 15 15 15 15 14 14 14 14 14 14 14 14
14 16 17 17 18 17 17 15 15 16 16 15 15 16 15 13 13 13 13 13 14 14 14 14 14 14 14 14 14 14 14 14 14 15 15 15 15 15 15 14 14 14 14 14 14 14 14 14 14
15 16 17 17 17 17 16 14 15 16 16 15 14 15 14 12 12 13 13 13 13 13 13 13 14 14 14 14 14 14 14 14 14 14 14 14 14 14 14 14 14 14 14 14 14 14 14 14 14
13 15 15 16 16 16 15 13 13 14 14 13 13 15 14 12 12 12 12 12 13 13 13 13 13 13 13 13 14 14 14 14 14 14 14 14 14 14 14 14 14 14 14 14 14 13 14 13 13
12 15 15 16 15 15 14 13 12 11 12 12 11 12 11 11 11 12 12 12 12 13 13 13 13 13 13 13 13 13 13 13 13 13 13 13 13 13 13 13 13 13 13 13 13 13 13 13 13
12 14 15 14 15 14 13 13 12 12 13 12 11 11 11 11 11 11 12 12 12 12 13 13 13 13 13 13 13 13 13 13 13 13 13 13 13 13 13 13 13 13 13 13 13 13 13 13 13
12 13 13 12 12 12 12 12 11 13 13 13 12 11 10 10 11 11 11 12 12 12 12 12 12 12 12 12 12 12 12 12 12 12 13 13 12 12 12 12 12 12 12 12 13 13 13 13 12
11 11 11 11 10 11 11 11 11 11 12 11 10 10 10 10 11 11 11 11 11 12 12 12 12 12 12 12 12 12 12 12 12 12 12 12 12 12 12 12 12 12 12 12 12 12 12 12 12
11 11 10 9 9 9 10 10 11 10 10 10 9 9 10 10 10 10 10 11 11 11 11 11 12 12 12 12 12 12 12 12 12 12 12 12 12 12 12 12 12 12 12 12 12 12 12 12 12
10 10 10 10 10 9 10 11 10 11 9 9 9 9 9 9 9 10 10 10 11 11 11 11 11 11 11 11 11 11 11 11 11 11 11 11 12 11 11 11 11 11 11 11 11 11 11 11 11
9 10 11 10 10 9 10 11 11 10 9 9 9 9 8 8 8 9 9 10 10 10 11 11 11 11 11 11 11 11 11 11 11 11 11 11 11 11 11 11 11 11 11 11 11 11 11 11 11
10 11 11 11 10 9 10 12 12 9 9 9 9 8 8 8 8 8 9 9 10 10 10 10 10 10 10 11 11 10 10 10 10 10 10 11 11 11 11 10 11 10 10 10 10 10 10 10 10
11 12 12 11 10 10 10 11 11 9 9 9 8 8 8 7 7 8 8 9 9 9 10 10 10 10 10 10 10 10 10 10 10 10 10 10 10 10 10 10 10 10 10 10 10 10 10 10 10
11 11 11 11 10 9 10 10 11 9 9 9 8 8 8 7 7 7 8 8 8 9 9 9 9 9 9 9 9 9 9 10 10 10 10 10 10 10 10 10 10 9 9 9 9 9 9 9 9
10 10 10 10 9 9 9 10 10 10 9 8 8 8 7 7 7 7 7 8 8 8 8 9 9 9 9 9 9 9 9 9 9 9 9 9 9 9 9 9 9 9 9 9 9 9 8 8 8
10 10 10 9 8 8 9 9 10 9 8 8 7 7 7 7 6 6 7 7 7 7 8 8 8 8 8 8 8 9 9 9 9 9 9 9 9 9 9 9 9 9 8 8 8 8 8 8 8
9 10 9 9 8 8 9 10 10 9 8 7 6 6 6 6 6 6 6 6 7 7 7 7 7 8 8 8 8 8 8 8 8 8 8 8 8 8 8 8 8 8 8 8 8 8 7 7 7
9 9 8 8 9 10 9 11 11 9 9 8 6 6 6 5 5 5 6 6 6 6 6 7 7 7 7 7 7 7 7 7 8 8 8 8 8 8 8 8 8 8 7 7 7 7 7 7 7
8 8 8 8 8 9 9 9 11 9 9 8 7 6 5 5 5 5 5 5 6 6 6 6 6 6 7 7 7 7 7 7 7 7 7 7 7 7 7 7 7 7 7 7 7 6 6 6 6
7 7 7 7 8 8 9 9 11 9 8 8 7 5 5 4 4 4 5 5 5 5 6 6 6 6 6 6 6 6 6 6 6 6 6 7 7 7 6 6 7 7 6 6 6 6 6 6 6
7 8 9 9 9 10 8 8 10 8 7 7 6 5 4 4 4 4 4 4 4 5 5 5 5 6 6 6 6 6 6 6 6 6 6 6 6 6 6 6 6 6 6 6 5 5 5 5 5
7 7 8 9 10 10 8 9 10 7 6 5 5 4 4 3 3 3 3 3 4 4 4 4 5 5 5 5 5 6 5 5 5 5 5 5 5 5 6 5 5 5 5 5 5 5 5 5 5
7 7 7 7 6 8 9 9 8 7 6 5 5 4 3 3 3 3 3 3 3 3 3 4 4 4 5 5 5 5 5 5 5 5 5 5 5 5 5 5 5 5 5 5 4 4 4 4 4
6 6 6 7 8 9 10 9 10 7 6 6 5 4 3 3 3 3 3 3 2 3 3 3 3 4 4 4 4 4 4 4 4 4 4 4 4 5 5 5 4 4 4 4 4 4 4 4 3
5 5 6 6 6 8 9 10 8 7 6 5 5 3 3 2 2 2 2 2 2 2 2 2 2 3 3 3 3 3 3 4 4 4 4 4 4 4 4 4 4 4 4 4 3 3 3 3 3
5 5 6 6 6 6 8 9 6 5 5 4 4 2 2 1 1 1 1 1 1 1 1 2 2 2 2 2 3 3 3 3 3 3 3 4 4 3 3 3 3 3 3 3 3 3 3 3 3
Wind_Speed
6 4 2 3 5 6 11 8 6 5 4 2 2 3 3 3 2 1 3 2 2 5 6 7 7 7 8 8 9 8 9 9 10 10 10 10 10 9 9 9 10 10 10 10 11 11 11 11 11
5 2 3 4 6 10 10 8 8 6 2 2 2 3 3 2 1 2 1 1 2 5 6 7 8 8 8 8 9 8 9 10 10 10 10 10 9 9 9 9 9 10 10 10 10 10 11 11 11
2 2 3 4 7 11 9 5 5 3 2 3 3 2 2 1 0 1 1 1 3 5 5 6 8 8 8 8 9 8 8 9 9 9 9 9 9 9 9 8 8 9 9 10 10 10 10 10 10
2 3 3 6 11 9 7 4 2 3 3 3 3 3 2 1 2 1 0 2 4 5 5 7 7 8 8 8 8 8 8 9 9 9 9 9 9 9 8 8 8 8 9 9 10 10 10 10 10
2 3 5 8 10 7 5 4 4 4 3 3 4 4 3 0 1 1 1 3 4 5 5 7 7 8 8 8 8 9 8 8 9 9 9 9 9 9 8 8 7 8 8 9 9 9 9 9 9
3 3 6 10 10 7 5 4 5 5 4 3 3 4 3 1 1 1 1 3 3 4 5 6 7 7 8 8 8 7 8 8 9 9 9 9 9 9 8 8 7 7 8 8 9 9 9 9 9
3 4 7 8 8 7 5 3 5 5 6 4 3 3 3 1 2 1 1 2 2 2 3 4 5 7 7 7 7 7 7 8 8 9 8 9 9 9 8 8 7 7 7 8 8 8 8 8 8
2 3 5 7 8 7 3 2 2 4 4 2 3 4 2 1 1 1 1 2 2 2 2 2 3 5 6 6 7 7 6 7 7 8 8 8 9 8 8 7 6 7 7 7 7 8 8 8 8
2 5 8 7 6 4 3 2 2 2 2 2 2 3 3 3 2 1 1 1 1 1 1 2 2 3 4 5 6 6 6 6 7 7 8 8 7 7 7 7 6 7 7 7 7 7 8 7 7
4 6 7 4 4 3 3 3 2 3 4 4 3 2 2 2 1 1 1 1 2 1 1 1 2 2 3 4 5 5 5 5 6 6 7 6 6 5 6 7 7 7 7 7 7 7 7 6 5
3 5 3 3 3 3 4 4 4 5 6 6 5 4 2 2 2 2 2 2 3 2 2 1 2 3 3 3 4 3 3 4 4 5 6 6 5 5 5 5 5 6 6 5 6 6 4 4 3
3 3 4 3 2 3 4 4 4 6 6 4 4 3 3 2 3 3 3 4 3 2 2 2 2 2 2 2 3 3 3 3 3 5 6 5 4 4 4 3 4 4 4 3 3 3 3 3 3
4 3 3 4 3 4 5 7 7 7 6 4 3 3 3 3 4 4 4 4 3 3 3 3 2 3 2 2 2 3 3 3 4 4 5 5 4 4 4 3 3 3 3 3 2 2 2 2 2
2 2 4 5 5 4 5 7 7 7 4 4 4 3 3 3 4 4 4 3 4 4 3 3 3 3 3 3 3 3 3 3 4 4 4 5 4 4 4 4 3 3 3 2 2 2 2 2 2
2 2 3 3 3 2 3 7 7 5 4 4 5 4 3 3 3 4 4 4 4 4 3 3 3 3 4 4 3 3 3 3 3 4 4 5 5 5 4 4 3 3 3 3 2 2 2 2 2
3 4 3 1 2 2 5 8 4 3 4 5 5 4 4 4 4 4 4 4 4 4 3 3 3 3 3 3 3 3 3 3 3 4 4 5 6 6 4 3 3 3 3 3 2 3 2 2 2
3 5 5 4 2 2 5 7 5 4 4 5 5 5 5 4 4 4 4 4 4 4 3 3 3 3 3 2 2 3 3 3 3 4 4 5 6 6 4 3 3 4 3 3 3 2 3 3 2
4 5 6 5 2 4 7 9 7 5 6 5 5 5 4 4 4 4 4 3 4 3 3 3 3 4 3 2 2 2 3 3 3 3 4 5 5 6 5 4 4 4 3 3 3 3 3 3 2
5 6 8 6 3 5 8 10 8 5 5 4 4 3 3 3 3 3 3 3 3 2 3 3 3 4 3 3 3 3 3 3 3 3 4 5 6 6 5 4 5 4 4 4 4 3 3 3 2
5 6 6 5 3 5 7 9 6 3 3 2 2 2 2 2 3 4 4 3 4 3 2 2 3 4 4 4 3 3 3 2 3 3 4 4 5 5 5 5 5 5 4 5 5 4 3 3 3
5 5 5 5 5 4 5 4 3 1 0 2 3 2 2 2 3 4 4 4 4 4 3 2 3 3 3 4 3 3 2 2 3 3 4 4 5 6 6 6 5 5 5 5 6 6 5 4 4
5 3 4 4 4 2 2 4 2 1 0 2 3 3 3 4 4 5 5 5 5 4 4 3 3 2 3 4 4 5 4 5 5 4 4 4 5 6 6 6 6 5 5 6 6 6 6 5 5
3 3 4 4 4 4 3 4 3 0 1 2 3 3 4 5 6 6 6 6 6 5 4 3 3 2 2 4 6 6 5 5 4 4 5 4 4 5 6 6 5 5 5 6 7 6 7 6 6
1 1 1 2 3 4 3 4 3 1 1 2 2 4 5 5 6 6 6 6 6 6 5 4 3 3 2 2 4 6 6 6 5 5 5 4 4 4 6 6 6 6 5 6 7 7 7 6 7
1 1 1 2 2 3 2 4 4 1 2 2 2 3 5 5 6 7 7 7 6 6 6 5 3 3 3 2 3 5 5 6 6 5 5 5 4 4 5 5 6 5 6 6 6 6 7 7 7
2 2 2 3 3 2 2 5 1 2 2 2 2 3 4 6 6 7 7 7 7 6 6 5 5 4 4 3 3 3 4 4 4 5 4 5 4 4 5 6 6 6 6 6 6 6 6 6 7
2 2 1 1 2 3 4 3 2 1 1 2 3 3 4 5 6 7 7 7 7 7 6 5 5 4 4 3 3 3 3 4 4 4 4 4 5 4 5 6 6 6 6 6 6 5 6 6 6
1 1 2 2 2 4 4 4 2 1 2 2 3 4 5 6 6 7 7 7 7 6 6 6 5 4 4 4 3 3 3 3 4 4 5 5 5 5 5 6 6 5 5 5 5 5 6 6 6
2 2 2 2 2 3 4 2 2 1 1 2 3 4 6 6 7 7 7 6 6 6 6 5 5 5 5 5 4 4 3 3 4 4 4 4 4 4 4 5 5 5 5 5 5 6 6 6 6
2 3 3 3 3 3 4 3 3 2 2 3 4 5 5 6 6 6 6 6 6 6 6 6 5 5 5 4 4 4 3 3 3 3 3 3 3 4 4 4 4 5 5 5 6 6 6 7 7
Wind_Direction
327 315 267 223 214 226 235 228 221 198 195 185 191 209 205 215 228 136 57 105 140 157 153 143 134 128 127 130 125 128 132 132 133 131 129 126 126 128 126 124 123 122 119 117 116 118 118 114 109
320 292 226 217 229 229 229 222 218 216 180 152 184 205 211 218 339 34 67 122 170 159 154 148 134 130 127 132 131 126 135 134 134 132 130 129 126 126 127 125 123 125 124 120 115 113 118 117 113
301 270 222 211 229 236 232 205 211 210 204 210 200 225 242 237 73 38 29 184 178 161 152 138 135 132 128 131 134 131 135 136 131 134 133 129 128 127 126 127 126 127 126 123 119 116 113 118 119
249 201 210 227 230 238 248 223 173 188 199 223 216 206 199 6 355 8 18 179 175 168 158 141 138 135 130 131 137 135 130 135 132 133 135 132 130 129 126 125 127 129 129 126 123 120 117 117 120
239 212 211 226 237 243 246 251 223 223 212 207 210 224 221 152 13 16 163 174 179 173 161 149 144 141 138 134 135 139 132 134 134 132 135 133 131 128 125 124 125 130 132 128 127 125 122 123 120
198 212 222 232 237 240 243 239 232 233 235 235 236 232 225 112 47 29 131 167 174 170 163 154 150 145 139 135 132 135 135 131 136 132 132 132 129 126 125 124 122 128 129 129 128 125 127 128 126
214 209 232 238 244 244 239 228 232 235 234 247 259 234 198 127 36 14 166 155 144 142 146 149 158 154 143 135 136 132 137 134 136 134 134 135 132 129 130 127 123 129 131 133 133 130 130 127 123
241 213 225 229 237 243 223 206 241 253 253 288 268 234 216 316 339 250 173 151 140 134 144 154 158 159 157 151 137 135 133 135 135 136 132 137 135 135 132 128 122 128 129 130 131 129 127 125 125
217 220 230 230 231 232 186 216 258 277 243 253 254 282 317 321 296 220 145 167 173 167 171 160 154 151 157 155 147 146 140 137 140 144 134 144 150 147 143 129 121 127 129 130 133 132 131 132 132
207 227 238 246 240 235 221 250 259 228 236 244 238 264 317 322 229 200 215 238 237 230 209 183 162 159 160 157 158 166 167 157 162 161 156 161 156 149 145 132 125 129 129 132 129 133 137 143 142
208 234 245 250 254 243 245 260 255 235 244 247 253 264 280 310 275 236 247 242 248 235 222 219 179 165 163 164 170 172 174 172 175 171 162 162 155 149 146 141 134 137 137 138 134 140 142 144 144
207 241 248 256 276 263 256 256 256 250 256 274 264 252 248 259 267 266 263 256 250 237 239 236 186 170 173 164 174 179 176 180 179 176 166 164 159 156 155 152 150 150 149 143 146 157 152 147 153
221 241 264 271 282 276 264 255 261 256 263 267 252 240 249 262 270 273 276 282 260 239 237 237 206 183 174 172 179 189 190 187 183 181 177 170 164 166 165 161 152 150 148 154 156 165 166 168 169
213 247 267 279 272 258 256 266 254 249 248 248 248 255 269 275 282 282 280 294 276 245 230 225 213 199 185 183 185 193 196 187 189 185 181 175 169 170 170 166 163 159 158 158 172 181 183 192 194
198 248 271 257 254 246 261 262 240 242 247 255 261 269 280 280 279 287 280 277 278 255 236 227 222 206 198 194 195 200 203 195 191 188 182 177 172 170 173 173 172 173 168 161 172 181 188 201 209
203 220 240 236 245 235 246 260 248 239 250 259 268 274 277 284 286 295 292 278 273 255 246 230 227 221 211 201 197 204 205 197 195 194 189 183 175 172 174 176 179 178 170 167 182 189 194 208 224
211 239 255 264 220 251 245 267 268 258 255 260 265 272 276 283 291 301 304 292 266 248 246 239 227 225 222 212 206 209 207 202 196 193 190 188 181 177 174 179 180 177 181 186 192 203 209 213 230
242 257 257 257 262 274 262 269 275 265 255 261 270 274 277 286 297 310 314 312 278 252 245 244 235 228 220 211 213 205 198 204 203 198 193 190 187 183 182 185 186 185 187 191 198 211 219 221 231
242 250 266 276 287 283 269 273 276 268 252 257 272 279 275 286 312 342 341 330 300 259 251 252 255 235 219 214 212 203 207 206 207 207 201 199 196 191 193 190 189 190 194 198 202 204 213 221 224
239 258 276 284 287 280 279 275 268 243 244 275 304 314 303 318 345 360 360 350 340 327 306 275 260 242 222 216 208 206 207 215 218 215 204 204 200 196 196 195 195 196 198 200 202 204 218 222 223
258 252 277 293 302 255 279 258 193 175 89 1 352 349 360 356 352 352 356 353 348 333 316 301 277 247 227 214 199 193 194 206 216 221 211 214 208 202 203 203 203 202 203 206 206 208 221 227 231
261 271 272 286 281 271 289 274 208 183 245 358 357 1 6 5 1 355 348 345 339 327 316 307 290 260 237 218 208 205 210 214 222 222 217 219 218 209 205 206 207 207 210 212 216 217 225 225 230
270 295 267 268 260 269 240 254 264 146 299 332 349 0 9 8 6 358 348 342 336 333 325 315 304 287 254 227 218 216 222 225 220 217 217 220 221 214 209 208 212 215 218 219 223 228 228 229 232
262 267 212 223 232 249 231 231 266 215 290 324 350 2 6 2 2 355 351 348 341 342 335 327 316 305 291 258 232 221 221 221 218 220 219 220 223 215 212 212 216 220 223 227 229 232 230 232 237
296 259 261 231 227 246 176 236 262 11 351 327 323 346 357 359 357 353 353 348 343 341 335 328 322 314 306 279 249 232 225 225 223 223 225 224 227 223 218 216 221 225 228 229 233 237 238 234 236
240 236 235 259 266 275 219 242 255 61 17 4 0 354 359 1 359 352 349 346 343 341 337 333 330 325 323 307 286 260 233 226 230 228 229 234 237 236 228 223 225 227 227 228 229 234 238 238 238
205 209 313 270 283 264 245 254 255 133 25 16 14 4 358 351 353 352 353 354 349 347 343 337 336 333 329 319 307 285 252 234 236 235 229 233 237 243 233 226 223 228 228 227 228 231 235 239 241
298 169 178 214 256 258 254 252 259 219 294 331 348 346 343 342 347 351 353 354 351 350 350 351 349 340 333 328 317 296 272 247 243 239 229 232 236 239 232 226 224 226 227 228 230 235 234 237 242
168 181 215 214 268 264 271 263 31 319 300 293 315 330 335 340 341 344 348 352 352 353 354 354 351 347 341 334 322 306 287 263 248 242 236 233 237 241 234 227 226 226 228 230 233 239 238 237 241
239 229 209 235 244 244 267 284 57 17 355 321 322 331 339 342 340 340 342 347 351 352 352 349 346 341 334 325 317 308 297 277 259 250 249 243 241 246 243 230 227 230 233 235 236 240 242 239 238
Height
1501 1502 1504 1506 1505 1499 1492 1489 1491 1493 1495 1498 1499 1498 1496 1496 1498 1504 1504 1501 1502 1504 1505 1506 1508 1509 1510 1512 1513 1514 1515 1516 1517 1518 1518 1519 1520 1521 1521 1522 1522 1522 1523 1523 1523 1524 1524 1524 1524
1501 1502 1505 1505 1499 1494 1489 1488 1492 1493 1496 1499 1499 1499 1498 1499 1501 1502 1500 1500 1502 1504 1505 1506 1507 1509 1510 1511 1512 1513 1515 1516 1516 1517 1518 1519 1520 1521 1521 1522 1522 1523 1523 1524 1524 1524 1524 1524 1524
1501 1502 1505 1501 1495 1489 1486 1489 1492 1496 1498 1499 1499 1500 1500 1500 1501 1501 1500 1500 1502 1503 1505 1505 1507 1508 1509 1510 1512 1513 1514 1515 1516 1517 1518 1519 1520 1521 1521 1522 1523 1523 1524 1524 1524 1524 1524 1525 1525
1502 1504 1504 1499 1492 1489 1489 1491 1495 1496 1498 1499 1499 1499 1500 1501 1500 1500 1499 1500 1502 1503 1504 1505 1506 1507 1508 1510 1511 1512 1513 1514 1515 1517 1518 1519 1520 1520 1521 1522 1523 1523 1524 1524 1524 1525 1525 1525 1525
1502 1502 1499 1495 1491 1491 1493 1495 1497 1496 1497 1498 1498 1497 1499 1500 1499 1499 1499 1500 1501 1503 1504 1504 1505 1507 1508 1509 1510 1511 1512 1514 1515 1516 1517 1518 1519 1520 1521 1522 1522 1523 1523 1524 1524 1525 1525 1525 1526
1503 1500 1496 1492 1489 1492 1494 1497 1498 1496 1497 1498 1499 1497 1498 1499 1498 1499 1499 1500 1501 1502 1503 1504 1505 1506 1507 1508 1509 1511 1512 1513 1514 1515 1516 1517 1518 1519 1520 1521 1522 1523 1523 1524 1524 1525 1525 1526 1526
1502 1497 1492 1490 1491 1491 1495 1497 1498 1496 1496 1498 1499 1498 1498 1498 1497 1498 1498 1499 1500 1501 1502 1503 1504 1505 1506 1507 1508 1510 1511 1512 1513 1514 1515 1517 1518 1519 1520 1520 1521 1522 1523 1523 1524 1524 1525 1525 1526
1500 1498 1493 1491 1491 1491 1496 1498 1498 1498 1497 1499 1499 1497 1497 1498 1497 1497 1497 1498 1498 1499 1501 1502 1503 1504 1505 1506 1507 1508 1510 1511 1512 1513 1514 1516 1517 1518 1519 1520 1520 1521 1522 1523 1523 1524 1524 1525 1525
1499 1498 1491 1489 1490 1491 1496 1497 1498 1498 1498 1497 1497 1497 1497 1496 1496 1496 1496 1497 1497 1498 1499 1500 1501 1502 1503 1505 1506 1507 1509 1510 1511 1512 1513 1514 1516 1517 1518 1518 1519 1520 1521 1522 1522 1523 1524 1524 1525
1498 1494 1490 1492 1492 1493 1495 1496 1497 1497 1496 1496 1496 1496 1496 1495 1495 1495 1495 1495 1495 1496 1497 1498 1499 1500 1501 1503 1504 1506 1507 1508 1509 1511 1512 1513 1514 1515 1516 1517 1518 1519 1520 1521 1521 1522 1523 1523 1523
1497 1493 1493 1495 1495 1495 1495 1496 1496 1495 1493 1494 1494 1494 1494 1494 1493 1493 1493 1493 1493 1494 1494 1495 1497 1498 1499 1501 1502 1504 1505 1506 1507 1509 1510 1511 1512 1514 1515 1516 1517 1518 1518 1519 1520 1521 1521 1521 1522
1497 1496 1496 1496 1496 1496 1495 1495 1495 1494 1493 1493 1493 1493 1492 1492 1491 1491 1491 1491 1491 1491 1492 1493 1494 1495 1497 1498 1500 1502 1503 1504 1505 1507 1508 1509 1510 1511 1513 1514 1515 1516 1517 1517 1518 1519 1519 1520 1520
1495 1495 1496 1496 1496 1495 1495 1494 1493 1492 1492 1492 1491 1491 1491 1490 1490 1490 1489 1489 1489 1489 1490 1491 1492 1493 1495 1496 1498 1499 1501 1501 1503 1504 1505 1507 1508 1509 1510 1512 1512 1513 1514 1515 1516 1517 1517 1518 1518
1495 1496 1496 1495 1494 1494 1493 1491 1492 1489 1490 1490 1490 1489 1489 1488 1488 1487 1487 1486 1486 1487 1488 1489 1489 1491 1492 1494 1495 1497 1498 1499 1500 1502 1503 1504 1505 1507 1508 1509 1510 1511 1512 1513 1514 1515 1515 1515 1516
1495 1494 1493 1493 1493 1492 1492 1488 1487 1488 1489 1488 1488 1487 1486 1486 1485 1484 1484 1484 1484 1485 1485 1487 1487 1489 1490 1491 1493 1494 1496 1497 1498 1499 1500 1501 1502 1504 1505 1507 1507 1509 1510 1510 1511 1512 1513 1513 1513
1493 1491 1488 1489 1491 1491 1492 1482 1484 1486 1486 1486 1486 1485 1484 1483 1483 1482 1481 1481 1482 1482 1483 1484 1485 1486 1488 1489 1490 1492 1493 1494 1495 1496 1497 1499 1500 1501 1503 1504 1505 1506 1507 1508 1509 1509 1510 1510 1510
1488 1485 1484 1487 1490 1489 1488 1481 1483 1485 1485 1484 1484 1483 1482 1481 1480 1479 1479 1478 1479 1480 1480 1481 1483 1484 1485 1486 1487 1489 1490 1491 1492 1493 1494 1496 1497 1498 1500 1501 1502 1503 1504 1505 1506 1506 1507 1507 1507
1484 1482 1483 1484 1487 1489 1485 1481 1481 1483 1483 1482 1481 1481 1480 1479 1478 1477 1477 1476 1476 1477 1477 1478 1479 1480 1482 1483 1484 1485 1487 1488 1489 1490 1491 1493 1494 1495 1497 1498 1499 1500 1501 1501 1502 1503 1503 1504 1504
1486 1485 1483 1484 1488 1488 1482 1479 1478 1480 1480 1480 1479 1478 1477 1477 1477 1475 1474 1474 1474 1474 1474 1475 1475 1476 1478 1479 1480 1481 1483 1484 1485 1487 1488 1489 1491 1492 1493 1494 1495 1496 1497 1498 1499 1500 1500 1500 1500
1487 1485 1483 1484 1487 1487 1482 1478 1476 1477 1478 1478 1477 1476 1476 1475 1474 1473 1472 1472 1471 1471 1471 1471 1472 1473 1474 1476 1477 1478 1480 1481 1482 1483 1484 1486 1487 1488 1490 1491 1492 1493 1493 1494 1495 1496 1496 1496 1497
1485 1483 1483 1485 1486 1484 1482 1472 1472 1475 1477 1477 1476 1475 1475 1474 1473 1473 1472 1471 1470 1469 1469 1469 1469 1470 1471 1473 1474 1475 1476 1477 1479 1480 1481 1482 1484 1485 1486 1487 1488 1489 1490 1490 1491 1492 1492 1493 1494
1484 1486 1486 1486 1483 1477 1480 1469 1466 1472 1474 1476 1476 1475 1475 1474 1473 1471 1470 1469 1468 1468 1468 1467 1467 1468 1469 1470 1471 1471 1472 1473 1474 1476 1477 1479 1480 1481 1482 1483 1484 1485 1486 1487 1488 1488 1489 1490 1490
1486 1488 1487 1486 1483 1481 1478 1477 1464 1471 1472 1474 1476 1476 1476 1475 1473 1472 1470 1468 1467 1467 1466 1465 1465 1465 1466 1467 1468 1468 1469 1470 1471 1473 1473 1475 1476 1477 1478 1479 1480 1481 1482 1482 1484 1484 1485 1485 1486
1490 1488 1487 1486 1482 1480 1476 1475 1463 1468 1472 1474 1476 1476 1475 1474 1473 1472 1470 1468 1467 1465 1464 1463 1463 1463 1463 1464 1465 1465 1466 1466 1467 1468 1469 1471 1472 1473 1474 1475 1476 1477 1478 1478 1479 1480 1480 1481 1482
1489 1485 1480 1477 1476 1470 1478 1476 1468 1472 1475 1476 1476 1476 1475 1474 1472 1470 1468 1467 1465 1464 1463 1462 1461 1461 1461 1461 1461 1462 1462 1463 1464 1465 1466 1467 1468 1469 1470 1471 1472 1473 1473 1474 1475 1475 1476 1476 1477
1488 1486 1482 1476 1469 1467 1477 1471 1467 1475 1477 1477 1477 1476 1475 1473 1472 1470 1468 1466 1464 1463 1461 1460 1459 1459 1458 1458 1458 1459 1459 1460 1460 1461 1462 1463 1464 1465 1466 1467 1468 1468 1469 1470 1470 1471 1471 1472 1472
1488 1487 1489 1486 1487 1479 1467 1467 1471 1475 1476 1477 1476 1476 1475 1473 1472 1470 1467 1465 1463 1462 1460 1459 1457 1457 1456 1456 1455 1455 1456 1456 1457 1458 1459 1460 1461 1462 1462 1463 1463 1464 1465 1465 1465 1466 1466 1467 1467
1492 1490 1490 1486 1479 1468 1463 1464 1462 1470 1472 1475 1475 1475 1474 1473 1471 1469 1467 1465 1463 1461 1459 1458 1456 1455 1454 1453 1453 1453 1453 1453 1454 1454 1455 1456 1457 1458 1458 1458 1459 1460 1460 1461 1461 1461 1462 1462 1462
1492 1492 1489 1485 1484 1472 1462 1461 1468 1470 1473 1474 1475 1475 1474 1472 1470 1468 1466 1464 1462 1460 1458 1456 1455 1454 1452 1451 1451 1450 1449 1449 1450 1451 1451 1452 1453 1454 1454 1454 1455 1455 1456 1457 1457 1457 1457 1457 1457
1492 1489 1488 1484 1484 1482 1471 1468 1474 1474 1475 1475 1475 1474 1473 1472 1470 1467 1465 1463 1462 1460 1457 1455 1454 1452 1451 1450 1449 1448 1447 1447 1447 1447 1447 1448 1449 1450 1450 1450 1451 1451 1452 1452 1452 1452 1452 1452 1453